Time,TemperatureF,DewpointF,PressureIn,WindDirection,WindDirectionDegrees,WindSpeedMPH,WindSpeedGustMPH,Humidity,HourlyPrecipIn,Conditions,Clouds,dailyrainin,SoftwareType,DateUTC
2013-03-27 00:09:00,44.5,35.0,30.20,WSW,240,0.0,1.0,69,0.00,,,0.00,weatherlink.com 1.10,2013-03-27 04:09:00,
2013-03-27 00:24:00,43.7,35.0,30.21,NW,325,0.0,0.0,71,0.00,,,0.00,weatherlink.com 1.10,2013-03-27 04:24:00,
2013-03-27 00:39:00,43.1,35.0,30.21,WSW,250,0.0,0.0,72,0.00,,,0.00,weatherlink.com 1.10,2013-03-27 04:39:00,
2013-03-27 00:54:00,42.3,35.0,30.21,WSW,250,0.0,0.0,74,0.00,,,0.00,weatherlink.com 1.10,2013-03-27 04:54:00,
2013-03-27 01:09:00,41.1,34.0,30.21,WSW,250,0.0,0.0,75,0.00,,,0.00,weatherlink.com 1.10,2013-03-27 05:09:00,
2013-03-27 01:25:00,40.7,34.0,30.20,West,266,0.0,0.0,78,0.00,,,0.00,weatherlink.com 1.10,2013-03-27 05:25:00,
2013-03-27 01:40:00,40.6,35.0,30.20,WNW,294,0.0,0.0,79,0.00,,,0.00,weatherlink.com 1.10,2013-03-27 05:40:00,
2013-03-27 01:55:00,40.4,35.0,30.20,NW,316,0.0,1.0,80,0.00,,,0.00,weatherlink.com 1.10,2013-03-27 05:55:00,
2013-03-27 02:10:00,40.4,35.0,30.19,WNW,293,1.0,2.0,81,0.00,,,0.00,weatherlink.com 1.10,2013-03-27 06:10:00,
2013-03-27 02:25:00,40.6,35.0,30.19,NW,309,1.0,4.0,81,0.00,,,0.00,weatherlink.com 1.10,2013-03-27 06:25:00,
2013-03-27 02:40:00,40.7,35.0,30.19,WNW,302,1.0,4.0,81,0.00,,,0.00,weatherlink.com 1.10,2013-03-27 06:40:00,
2013-03-27 02:55:00,40.6,35.0,30.19,West,273,1.0,3.0,81,0.00,,,0.00,weatherlink.com 1.10,2013-03-27 06:55:00,
2013-03-27 03:10:00,40.4,35.0,30.19,North,357,0.0,3.0,81,0.00,,,0.00,weatherlink.com 1.10,2013-03-27 07:10:00,
2013-03-27 03:25:00,40.1,35.0,30.18,NW,307,1.0,3.0,82,0.00,,,0.00,weatherlink.com 1.10,2013-03-27 07:25:00,
2013-03-27 03:40:00,40.2,35.0,30.18,NW,323,1.0,6.0,81,0.00,,,0.00,weatherlink.com 1.10,2013-03-27 07:40:00,
2013-03-27 03:55:00,40.3,35.0,30.18,NW,316,1.0,3.0,81,0.00,,,0.00,weatherlink.com 1.10,2013-03-27 07:55:00,
2013-03-27 04:10:00,40.1,35.0,30.18,West,278,0.0,3.0,81,0.00,,,0.00,weatherlink.com 1.10,2013-03-27 08:10:00,
2013-03-27 04:25:00,39.7,34.0,30.19,NW,308,0.0,2.0,81,0.00,,,0.00,weatherlink.com 1.10,2013-03-27 08:25:00,
2013-03-27 04:40:00,39.4,34.0,30.19,NW,309,1.0,1.0,82,0.00,,,0.00,weatherlink.com 1.10,2013-03-27 08:40:00,
2013-03-27 04:55:00,39.1,34.0,30.19,NW,315,0.0,1.0,82,0.00,,,0.00,weatherlink.com 1.10,2013-03-27 08:55:00,
2013-03-27 05:10:00,38.9,34.0,30.20,NW,323,1.0,1.0,83,0.00,,,0.00,weatherlink.com 1.10,2013-03-27 09:10:00,
2013-03-27 05:25:00,38.8,34.0,30.20,WNW,289,0.0,2.0,83,0.00,,,0.00,weatherlink.com 1.10,2013-03-27 09:25:00,
2013-03-27 05:40:00,38.6,34.0,30.20,NNW,328,2.0,2.0,83,0.00,,,0.00,weatherlink.com 1.10,2013-03-27 09:40:00,
2013-03-27 05:55:00,38.5,34.0,30.20,NW,304,0.0,1.0,83,0.00,,,0.00,weatherlink.com 1.10,2013-03-27 09:55:00,
2013-03-27 06:10:00,38.1,34.0,30.20,NW,311,0.0,1.0,84,0.00,,,0.00,weatherlink.com 1.10,2013-03-27 10:10:00,
2013-03-27 06:25:00,37.9,34.0,30.20,NNW,333,1.0,1.0,84,0.00,,,0.00,weatherlink.com 1.10,2013-03-27 10:25:00,
2013-03-27 06:40:00,37.9,34.0,30.20,West,274,1.0,3.0,84,0.00,,,0.00,weatherlink.com 1.10,2013-03-27 10:40:00,
2013-03-27 06:55:00,37.9,34.0,30.20,WNW,294,0.0,2.0,84,0.00,,,0.00,weatherlink.com 1.10,2013-03-27 10:55:00,
2013-03-27 07:11:00,37.8,33.0,30.21,NW,316,1.0,2.0,84,0.00,,,0.00,weatherlink.com 1.10,2013-03-27 11:11:00,
2013-03-27 07:25:00,37.8,33.0,30.22,West,281,0.0,3.0,84,0.00,,,0.00,weatherlink.com 1.10,2013-03-27 11:25:00,
2013-03-27 07:40:00,38.0,33.0,30.23,West,271,1.0,3.0,83,0.00,,,0.00,weatherlink.com 1.10,2013-03-27 11:40:00,
2013-03-27 07:55:00,38.8,34.0,30.23,WNW,296,1.0,3.0,82,0.00,,,0.00,weatherlink.com 1.10,2013-03-27 11:55:00,
2013-03-27 08:10:00,40.2,34.0,30.24,NW,315,2.0,6.0,78,0.00,,,0.00,weatherlink.com 1.10,2013-03-27 12:10:00,
2013-03-27 08:25:00,41.5,34.0,30.24,NW,309,1.0,6.0,76,0.00,,,0.00,weatherlink.com 1.10,2013-03-27 12:25:00,
2013-03-27 08:40:00,43.2,36.0,30.24,WNW,300,3.0,5.0,75,0.00,,,0.00,weatherlink.com 1.10,2013-03-27 12:40:00,
2013-03-27 08:55:00,44.9,36.0,30.24,NNW,338,6.0,7.0,70,0.00,,,0.00,weatherlink.com 1.10,2013-03-27 12:55:00,
2013-03-27 09:10:00,46.8,36.0,30.25,NW,311,3.0,6.0,67,0.00,,,0.00,weatherlink.com 1.10,2013-03-27 13:10:00,
2013-03-27 09:26:00,48.3,36.0,30.25,WNW,297,7.0,7.0,63,0.00,,,0.00,weatherlink.com 1.10,2013-03-27 13:26:00,
2013-03-27 09:41:00,49.7,36.0,30.26,North,354,4.0,8.0,60,0.00,,,0.00,weatherlink.com 1.10,2013-03-27 13:41:00,
2013-03-27 09:56:00,51.4,37.0,30.26,NW,314,2.0,8.0,58,0.00,,,0.00,weatherlink.com 1.10,2013-03-27 13:56:00,
2013-03-27 10:11:00,52.6,37.0,30.26,West,276,3.0,9.0,56,0.00,,,0.00,weatherlink.com 1.10,2013-03-27 14:11:00,
2013-03-27 10:41:00,54.1,37.0,30.27,WNW,302,3.0,8.0,52,0.00,,,0.00,weatherlink.com 1.10,2013-03-27 14:41:00,
2013-03-27 11:11:00,55.8,35.0,30.27,NNW,330,3.0,12.0,46,0.00,,,0.00,weatherlink.com 1.10,2013-03-27 15:11:00,
2013-03-27 11:26:00,56.6,35.0,30.27,NNW,340,4.0,8.0,45,0.00,,,0.00,weatherlink.com 1.10,2013-03-27 15:26:00,
2013-03-27 11:41:00,57.6,36.0,30.27,West,281,1.0,6.0,44,0.00,,,0.00,weatherlink.com 1.10,2013-03-27 15:41:00,
2013-03-27 11:56:00,57.5,33.0,30.26,WNW,293,3.0,8.0,40,0.00,,,0.00,weatherlink.com 1.10,2013-03-27 15:56:00,
2013-03-27 12:26:00,58.3,32.0,30.26,NW,319,2.0,8.0,37,0.00,,,0.00,weatherlink.com 1.10,2013-03-27 16:26:00,
2013-03-27 12:41:00,58.9,32.0,30.25,NE,34,4.0,7.0,37,0.00,,,0.00,weatherlink.com 1.10,2013-03-27 16:41:00,
2013-03-27 12:56:00,59.6,34.0,30.25,ENE,68,0.0,7.0,38,0.00,,,0.00,weatherlink.com 1.10,2013-03-27 16:56:00,
2013-03-27 13:11:00,60.4,33.0,30.25,NNE,27,1.0,8.0,36,0.00,,,0.00,weatherlink.com 1.10,2013-03-27 17:11:00,
2013-03-27 13:26:00,61.0,34.0,30.24,NNE,19,2.0,8.0,36,0.00,,,0.00,weatherlink.com 1.10,2013-03-27 17:26:00,
2013-03-27 13:41:00,60.7,34.0,30.23,ENE,71,0.0,7.0,37,0.00,,,0.00,weatherlink.com 1.10,2013-03-27 17:41:00,
2013-03-27 13:56:00,61.6,34.0,30.22,NW,325,4.0,9.0,35,0.00,,,0.00,weatherlink.com 1.10,2013-03-27 17:56:00,
2013-03-27 14:11:00,62.4,35.0,30.22,North,358,5.0,6.0,36,0.00,,,0.00,weatherlink.com 1.10,2013-03-27 18:11:00,
2013-03-27 14:26:00,62.4,34.0,30.21,West,276,3.0,11.0,34,0.00,,,0.00,weatherlink.com 1.10,2013-03-27 18:26:00,
2013-03-27 14:41:00,63.1,33.0,30.20,WNW,285,3.0,6.0,32,0.00,,,0.00,weatherlink.com 1.10,2013-03-27 18:41:00,
2013-03-27 14:56:00,63.8,33.0,30.20,North,1,1.0,7.0,32,0.00,,,0.00,weatherlink.com 1.10,2013-03-27 18:56:00,
2013-03-27 15:11:00,64.1,34.0,30.19,NNW,345,3.0,8.0,33,0.00,,,0.00,weatherlink.com 1.10,2013-03-27 19:11:00,
2013-03-27 15:26:00,64.1,33.0,30.19,NW,316,4.0,8.0,32,0.00,,,0.00,weatherlink.com 1.10,2013-03-27 19:26:00,
2013-03-27 15:42:00,64.5,35.0,30.18,NNE,25,3.0,6.0,34,0.00,,,0.00,weatherlink.com 1.10,2013-03-27 19:42:00,
2013-03-27 16:12:00,64.5,41.0,30.17,East,84,2.0,6.0,42,0.00,,,0.00,weatherlink.com 1.10,2013-03-27 20:12:00,
2013-03-27 16:27:00,64.6,41.0,30.17,NNW,333,3.0,6.0,42,0.00,,,0.00,weatherlink.com 1.10,2013-03-27 20:27:00,
2013-03-27 16:42:00,64.5,42.0,30.17,NW,326,1.0,4.0,44,0.00,,,0.00,weatherlink.com 1.10,2013-03-27 20:42:00,
2013-03-27 16:57:00,64.8,43.0,30.17,NE,51,2.0,7.0,45,0.00,,,0.00,weatherlink.com 1.10,2013-03-27 20:57:00,
2013-03-27 17:12:00,63.7,44.0,30.18,North,5,0.0,8.0,49,0.00,,,0.00,weatherlink.com 1.10,2013-03-27 21:12:00,
2013-03-27 17:27:00,63.5,43.0,30.18,NNW,330,5.0,6.0,47,0.00,,,0.00,weatherlink.com 1.10,2013-03-27 21:27:00,
2013-03-27 17:42:00,63.5,44.0,30.18,SE,135,1.0,4.0,50,0.00,,,0.00,weatherlink.com 1.10,2013-03-27 21:42:00,
2013-03-27 17:57:00,62.5,43.0,30.19,NW,318,0.0,5.0,50,0.00,,,0.00,weatherlink.com 1.10,2013-03-27 21:57:00,
2013-03-27 18:12:00,61.6,43.0,30.19,NW,309,1.0,6.0,51,0.00,,,0.00,weatherlink.com 1.10,2013-03-27 22:12:00,
2013-03-27 18:28:00,61.4,43.0,30.19,SE,135,2.0,5.0,52,0.00,,,0.00,weatherlink.com 1.10,2013-03-27 22:28:00,
2013-03-27 18:42:00,61.0,43.0,30.20,West,269,0.0,4.0,52,0.00,,,0.00,weatherlink.com 1.10,2013-03-27 22:42:00,
2013-03-27 18:57:00,59.5,43.0,30.20,NW,315,2.0,4.0,54,0.00,,,0.00,weatherlink.com 1.10,2013-03-27 22:57:00,
2013-03-27 19:12:00,57.8,43.0,30.20,NNW,343,1.0,3.0,58,0.00,,,0.00,weatherlink.com 1.10,2013-03-27 23:12:00,
2013-03-27 19:27:00,56.8,43.0,30.20,West,278,0.0,1.0,60,0.00,,,0.00,weatherlink.com 1.10,2013-03-27 23:27:00,
2013-03-27 19:42:00,54.7,43.0,30.20,SW,224,0.0,1.0,64,0.00,,,0.00,weatherlink.com 1.10,2013-03-27 23:42:00,
2013-03-27 19:57:00,53.2,42.0,30.20,SW,224,0.0,0.0,67,0.00,,,0.00,weatherlink.com 1.10,2013-03-27 23:57:00,
2013-03-27 20:12:00,52.0,42.0,30.20,SW,224,0.0,0.0,69,0.00,,,0.00,weatherlink.com 1.10,2013-03-28 00:12:00,
2013-03-27 20:27:00,50.3,42.0,30.21,SW,224,0.0,0.0,72,0.00,,,0.00,weatherlink.com 1.10,2013-03-28 00:27:00,
2013-03-27 20:42:00,49.4,42.0,30.21,SW,224,0.0,0.0,76,0.00,,,0.00,weatherlink.com 1.10,2013-03-28 00:42:00,
2013-03-27 20:57:00,48.3,41.0,30.21,SW,224,0.0,0.0,77,0.00,,,0.00,weatherlink.com 1.10,2013-03-28 00:57:00,
2013-03-27 21:12:00,47.0,41.0,30.22,SW,224,0.0,0.0,81,0.00,,,0.00,weatherlink.com 1.10,2013-03-28 01:12:00,
2013-03-27 21:28:00,46.2,42.0,30.22,SW,224,0.0,0.0,84,0.00,,,0.00,weatherlink.com 1.10,2013-03-28 01:28:00,
2013-03-27 21:42:00,46.0,42.0,30.22,SW,224,0.0,0.0,86,0.00,,,0.00,weatherlink.com 1.10,2013-03-28 01:42:00,
2013-03-27 21:57:00,45.2,41.0,30.23,SW,224,0.0,0.0,86,0.00,,,0.00,weatherlink.com 1.10,2013-03-28 01:57:00,
2013-03-27 22:12:00,45.0,42.0,30.23,SW,224,0.0,0.0,88,0.00,,,0.00,weatherlink.com 1.10,2013-03-28 02:12:00,
2013-03-27 22:42:00,44.4,41.0,30.23,SW,224,0.0,0.0,89,0.00,,,0.00,weatherlink.com 1.10,2013-03-28 02:42:00,
2013-03-27 22:57:00,43.8,41.0,30.23,SW,224,0.0,0.0,90,0.00,,,0.00,weatherlink.com 1.10,2013-03-28 02:57:00,
2013-03-27 23:12:00,43.6,41.0,30.24,SW,224,0.0,0.0,91,0.00,,,0.00,weatherlink.com 1.10,2013-03-28 03:12:00,
2013-03-27 23:27:00,43.0,41.0,30.23,SW,224,0.0,0.0,91,0.00,,,0.00,weatherlink.com 1.10,2013-03-28 03:27:00,
2013-03-27 23:42:00,42.6,40.0,30.23,SW,224,0.0,0.0,91,0.00,,,0.00,weatherlink.com 1.10,2013-03-28 03:42:00,
2013-03-27 23:57:00,42.4,40.0,30.23,SW,224,0.0,0.0,92,0.00,,,0.00,weatherlink.com 1.10,2013-03-28 03:57:00,